Location: Rokycany
(49.7330°N, 13.6000°E)
Time: 06:04:29
(UTC+02:00)

ISS - Pass Details

Date: 02 April 2019
Orbit: 408 x 410 km, 51.6° (Epoch: 22 April)

Event Time Altitude Azimuth Distance (km) Brightness Sun altitude
Rises 22:32:28 0° 285° (WNW) 2,338 1.0 -25.6°
Reaches altitude 10° 22:34:51 10° 269° (W) 1,473 -0.5 -25.8°
Enters shadow 22:35:31 14° 261° (W) 1,273 -1.0 -25.9°
